sat.trackr.live / text

‹ back to catalog

ARIRANG-3 (KOMPSAT-3)

NORAD 38338 · 2012-025B

PAYLOAD ACTIVE UNKNOWN

§ Identity

Operator
Country
SKOR
Launch date
2012-05-17
Launch site
TANSC
Launch vehicle
Mass (kg)
RCS (m²)
5.26

Purposes: earth_obs

External: N2YO · Heavens-Above · Gunter

§ Orbital elements

Epoch: 2026-09-20T05:12:52.013088Z

Period
98.48 min
Inclination
98.1281°
Eccentricity
0.0005523
Mean motion
14.62274471 rev/d
Perigee alt
681.9 km
Apogee alt
689.7 km
Semi-major
7,064.0 km
B*
5.9099e-5
RAAN
219.0888°
Arg perigee
162.6294°
Mean anomaly
197.5098°
Rev number
76,523

§ Raw data

ARIRANG-3 (KOMPSAT-3)1 38338U 12025B   26263.21726867  .00000251  00000+0  59099-4 0  99962 38338  98.1281 219.0888 0005523 162.6294 197.5098 14.62274471765237

JSON: /api/v1/satellites/38338 · /tle

For live sub-satellite position, see the globe view (requires WebGL).

§ Visibility from observer

Set your observer location to see the next 7 days of passes ≥ 10°. The values pass through the URL so the page stays shareable.

No JS? Fill the form by hand. The geolocation button needs JavaScript.

§ Radio — SatNOGS DB

ModeDescriptionDownlinkUplink
BPSK S-band telemetry 2.232 GHz
FM S-band telemetry (inactive) 2.234 GHz

2 transmitters · refreshed weekly from db.satnogs.org